www.pogodaiklimat.ru

Погода и климат >> Архив погоды >> Португалия >> Фуншал


ПОГОДА в Фуншале

  • Прогноз погоды в Фуншале
  • Монитор погоды в Фуншале

АРХИВ ПОГОДЫ в Фуншале

Время (UTC), дата Ветер
(напр.,м/с)
 
Видим.   Явления Облачность Т
(С)
Тd
(С)
f
(%)
Тe
(С)
Тes
(С)
Комфортность P
(гПа)
Po
(гПа)
Тmin
(С)
Tmax
(С)
R
(мм)
R24
(мм)
S
(см)
01 13.09 С 1 н/о н/о +21.5 +14.5 64 +24 +24 комфорт 1021.8 1015.0
02 13.09 С 1 н/о н/о +21.4 +13.4 60 +24 +24 комфорт 1021.4 1014.6
03 13.09 С 1 н/о н/о +21.2 +14.1 64 +24 +24 комфорт 1020.8 1014.0
04 13.09 н/о н/о +21.0 +12.7 59 1020.4 1013.6
05 13.09 н/о н/о +21.3 +12.2 56 1020.2 1013.4
06 13.09 СВ 1 н/о н/о +20.7 +11.4 55 +24 +24 комфорт 1020.6 1001.6 +20.4
07 13.09 н/о н/о +20.9 +11.4 55 1020.9 1014.1
08 13.09 штиль 0 н/о н/о +22.5 +11.7 50 +25 +25 комфорт 1021.3 1014.5
09 13.09 нст 1 18 км ясно +25.1 +12.3 45 +27 +31 жарко 1030.1 1014.7
10 13.09 С 1 н/о н/о +25.9 +14.9 51 +29 +29 душно 1021.6 1014.9
11 13.09
{5}
20 км ясно +26.9 +15.1 48 1021.3 1014.6
12 13.09 нст 2
{5}
18 км ясно +27.5 +15.2 47 +30 +45 жарко 1030.1 1014.4
13 13.09 н/о н/о +27.3 +16.3 51 1021.0 1014.3
14 13.09 С 1 н/о н/о +25.9 +16.4 56 +29 +29 душно 1020.6 1013.9
15 13.09 нст 1 18 км 1/1 600 м
[]
+26.2 +16.1 54 +30 +43 душно 1020.1 1013.4
16 13.09 С 1 18 км 1/1 750 м
[Cu hum]
+26.4 +15.8 52 +30 +39 душно 1019.9 1013.2
17 13.09 18 км 1/1 750 м
[Cu hum]
+25.9 +16.7 57 1020.1 1013.4
18 13.09 нст 1 18 км 1/1 750 м
[]
+25.1 +17.3 62 +29 +31 душно 1030.1 1013.4 +27.7
19 13.09 С 1 н/о н/о +24.2 +16.2 61 +28 +28 душно 1020.4 1013.7
20 13.09 штиль 0 н/о н/о +23.5 +17.1 67 +27 +27 душно 1020.6 1013.9
21 13.09 штиль 0 н/о н/о +22.9 +16.2 66 +27 +27 душно 1021.2 1014.4
22 13.09 СВ 1 н/о н/о +23.5 +15.6 61 +27 +27 душно 1021.3 1014.6
23 13.09 СВ 1 н/о н/о +23.3 +15.1 60 +27 +27 душно 1021.1 1014.3
00 14.09 С 1 н/о н/о +23.0 +14.8 60 +27 +27 душно 1020.7 1014.0
01 14.09 н/о н/о +22.5 +15.1 63 1020.5 1013.7
02 14.09 н/о н/о +22.4 +16.4 69 1019.9 1013.2
03 14.09 СВ 1 н/о н/о +22.1 +16.5 71 +26 +26 душно 1019.6 1012.8
04 14.09 н/о н/о +21.8 +16.1 70 1019.4 1012.6
05 14.09 СВ 1 н/о н/о +21.6 +16.2 71 +25 +25 комфорт 1019.3 1012.5
06 14.09 СВ 1 н/о н/о +21.4 +16.2 72 +25 +25 комфорт 1019.6 1001.8 +21.4
07 14.09 С 1 н/о н/о +21.4 +16.8 75 +25 +25 комфорт 1020.0 1013.2
08 14.09 штиль 0 н/о н/о +22.5 +17.3 72 +27 +27 душно 1020.4 1013.7
09 14.09 С 1 н/о н/о +23.8 +18.0 70 +28 +28 душно 1020.8 1014.1
10 14.09 н/о н/о +24.5 +18.8 71 1021.2 1014.4
11 14.09 С 2 н/о н/о +25.5 +19.2 68 +31 +31 очень
душно
1021.2 1014.5
12 14.09 С 2 н/о н/о +25.0 +19.0 69 +30 +30 душно 1021.1 1014.4
13 14.09 н/о н/о +26.6 +19.5 65 1020.7 1014.0
14 14.09
{5}
н/о н/о +27.4 +19.3 61 1020.4 1013.8
15 14.09 нст 1
{5}
н/о н/о +25.9 +18.0 62 +30 +30 душно 1020.3 1013.6
16 14.09 С 2
{5}
н/о н/о +26.3 +18.2 61 +31 +31 душно 1020.2 1013.5
17 14.09 н/о н/о +24.8 +18.3 67 1020.3 1013.6
18 14.09 нст 1 н/о н/о +24.1 +18.5 71 +29 +29 душно 1020.3 1013.5 +27.7
19 14.09 н/о н/о +23.2 +18.5 75 1020.2 1013.5
20 14.09 С 1 н/о н/о +22.8 +18.7 78 +29 +29 очень
душно
1020.5 1013.7
21 14.09 штиль 0 н/о н/о +22.3 +18.4 79 +28 +28 душно 1021.2 1014.4
22 14.09 штиль 0 н/о н/о +21.9 +17.7 77 +26 +26 душно 1021.4 1014.6
23 14.09 штиль 0 н/о н/о +21.9 +17.5 76 +26 +26 душно 1021.2 1014.4
00 15.09 штиль 0 н/о н/о +22.2 +16.6 71 +27 +27 душно 1021.3 1014.5
01 15.09 СВ 1 н/о н/о +22.2 +14.8 63 +26 +26 душно 1021.1 1014.3
02 15.09 С 1 н/о н/о +21.9 +14.0 61 +25 +25 комфорт 1020.7 1013.9
03 15.09 СВ 2 н/о н/о +21.8 +14.1 62 +25 +25 комфорт 1020.4 1013.6
04 15.09 СВ 1 н/о н/о +21.6 +13.5 60 +24 +24 комфорт 1020.2 1013.4
05 15.09 С 1 н/о н/о +21.5 +13.8 62 +24 +24 комфорт 1020.4 1013.6
06 15.09 СВ 1 н/о н/о +21.4 +14.9 66 +24 +24 комфорт 1020.6 1001.8 +21.2
07 15.09 СВ 1 н/о н/о +21.3 +14.9 67 +24 +24 комфорт 1020.6 1013.8
08 15.09 штиль 0 н/о н/о +22.4 +14.8 62 +26 +26 жарко 1020.9 1014.1
09 15.09 С 1 н/о н/о +23.9 +17.6 68 +28 +28 душно 1021.4 1014.7
10 15.09 н/о н/о +24.1 +18.2 70 1021.8 1015.0
11 15.09 н/о н/о +25.2 +17.0 60 1022.0 1015.3
12 15.09 С 2 н/о н/о +25.9 +17.7 61 +30 +30 душно 1021.7 1015.0
13 15.09 С 2 н/о н/о +26.3 +17.2 57 +30 +30 душно 1021.3 1014.6
14 15.09 н/о н/о +26.3 +17.7 59 1020.6 1013.9
15 15.09 нст 1
{6}
н/о н/о +25.7 +17.5 61 +30 +30 душно 1020.4 1013.7
16 15.09 С 2 н/о н/о +25.0 +17.7 64 +29 +29 душно 1020.2 1013.5
17 15.09 С 1 н/о н/о +24.6 +17.5 65 +29 +29 душно 1020.0 1013.2
18 15.09 нст 1 н/о н/о +23.9 +17.3 67 +28 +28 душно 1019.7 1012.9 +26.8
19 15.09 н/о н/о +23.0 +17.6 72 1019.7 1012.9
20 15.09 н/о н/о +22.3 +18.0 77 1019.9 1013.2
21 15.09 С 1 н/о н/о +22.5 +18.5 78 +28 +28 душно 1020.7 1013.9
22 15.09 штиль 0 н/о н/о +22.3 +18.5 79 +28 +28 душно 1021.2 1014.4
23 15.09 штиль 0 н/о н/о +22.3 +18.4 79 +28 +28 душно 1021.3 1014.5
00 16.09 С 1 н/о н/о +22.3 +18.3 78 +27 +27 душно 1021.4 1014.6
01 16.09 н/о н/о +22.2 +17.6 75 1021.2 1014.4
02 16.09 С 1 н/о н/о +21.9 +17.0 74 +26 +26 душно 1020.8 1014.0
03 16.09 штиль 0 н/о н/о +21.8 +16.5 72 +26 +26 душно 1020.4 1013.6
04 16.09 штиль 0 н/о н/о +21.5 +16.5 73 +25 +25 комфорт 1019.7 1012.9
05 16.09 С 1 н/о н/о +21.1 +16.5 75 +25 +25 комфорт 1019.7 1012.9
06 16.09 штиль 0 н/о н/о +20.8 +16.2 75 +24 +24 комфорт 1019.9 1001.7 +20.8
07 16.09 штиль 0 18 км 1/1 600 м
[Cu Sc Ac trans]
+20.6 +16.2 76 +23 +23 комфорт 1020.3 1013.5
08 16.09 штиль 0 18 км 3/1 600 м
[Cu Sc Ac trans]
+22.2 +16.0 68 +26 +27 душно 1020.8 1014.0
09 16.09 нст 1 18 км 3/3 600 м
[]
+23.2 +16.4 66 +28 +31 душно 1030.1 1014.1
10 16.09 С 1 18 км 3/3 700 м
[Cu Sc Ac trans]
+24.3 +16.9 63 +28 +34 душно 1021.2 1014.5
11 16.09 С 1 18 км 3/3 750 м
[Cu Sc Ac trans]
+24.5 +16.3 60 +28 +37 душно 1021.3 1014.5
12 16.09 нст 2 18 км 1/1 600 м
[]
+25.5 +16.3 57 +29 +42 душно 1030.1 1013.8
13 16.09 н/о н/о +25.0 +16.4 59 1020.1 1013.4
14 16.09 С 2
{5}
н/о н/о +27.1 +17.3 55 +31 +31 душно 1019.6 1013.0
15 16.09 нст 2
{6}
18 км 5/5 600 м
[]
+27.1 +17.5 56 +31 +38 душно 1019.3 1012.7
16 16.09 -5
{6}
н/о н/о +26.3 +17.4 58 1018.9 1012.2
17 16.09
{5}
н/о н/о +25.5 +17.3 60 1018.9 1012.2
18 16.09 нст 2
{5}
18 км 6/6 660 м
[Cu Sc]
+23.8 +17.1 66 +28 +28 душно 1030.1 1012.5 +27.8
19 16.09 С 1 н/о н/о +23.2 +17.0 68 +28 +28 душно 1019.4 1012.7
20 16.09 н/о н/о +22.9 +16.9 69 1019.8 1013.0
21 16.09 С 1 н/о н/о +22.9 +16.9 69 +28 +28 душно 1020.1 1013.3
22 16.09 н/о н/о +22.8 +16.8 69 1020.5 1013.7
23 16.09 С 1 н/о н/о +22.9 +16.9 69 +28 +28 душно 1020.1 1013.4
00 17.09 С 1 н/о н/о +22.7 +16.7 69 +27 +27 душно 1019.8 1013.0
01 17.09 н/о н/о +22.7 +16.5 68 1019.3 1012.5
02 17.09 н/о н/о +22.8 +16.1 66 1018.8 1012.0
03 17.09 штиль 0 н/о н/о +22.4 +15.6 65 +26 +26 жарко 1017.9 1011.2
04 17.09 штиль 0 н/о н/о +22.0 +16.2 70 +26 +26 душно 1017.9 1011.1
05 17.09 н/о н/о +21.6 +15.3 67 1017.9 1011.1
06 17.09 СВ 1 н/о н/о +21.2 +15.1 68 +24 +24 комфорт 1018.1 1001.8 +21.1
07 17.09 С 1 н/о н/о +21.1 +15.1 69 +24 +24 комфорт 1018.4 1011.6
08 17.09 СВ 1 18 км 1/1 700 м
[Cu Sc Ac trans]
+22.1 +15.7 67 +26 +27 душно 1018.6 1011.8
09 17.09 штиль 0 18 км 3/3 600 м
[]
+23.6 +16.3 64 +27 +31 жарко 1030.1 1012.2
10 17.09 20 км 3/1 700 м
[Cu Sc Ac und]
+24.0 +16.2 62 1019.4 1012.7
11 17.09 20 км 8/5 700 м
[Cu Sc Ac und]
+24.8 +16.6 60 1019.6 1012.9
12 17.09 нст 1 20 км 9/4 600 м
[Cb calv Ac inh Cc]
+24.5 +16.6 61 +28 +32 душно 1030.1 1012.7
13 17.09 н/о н/о +23.7 +16.4 64 1019.1 1012.4
14 17.09 н/о н/о +23.6 +16.8 66 1018.8 1012.1
15 17.09 нст 1 20 км 9/6 600 м
[St Ac trans]
+23.7 +16.6 64 +27 +29 жарко 1018.5 1011.8
16 17.09 ЮЗ 1 н/о н/о +24.0 +17.2 66 +28 +28 душно 1018.2 1011.4
17 17.09 н/о н/о +23.4 +16.8 66 1018.1 1011.4
18 17.09 нст 1 20 км 9/9 600 м
[]
+23.1 +17.1 69 +28 +28 душно 1030.1 1011.3 +25.4
19 17.09 штиль 0 н/о н/о +22.6 +17.1 71 +27 +27 душно 1018.0 1011.3
20 17.09 С 1 н/о н/о +22.3 +17.1 72 +27 +27 душно 1018.4 1011.6
21 17.09 С 1 н/о н/о +22.1 +16.8 72 +26 +26 душно 1019.0 1012.2
22 17.09 н/о н/о +22.1 +16.6 71 1019.2 1012.4
23 17.09 штиль 0 н/о н/о +21.4 +16.3 73 +25 +25 комфорт 1019.3 1012.5
00 18.09 СВ 1 н/о н/о +21.5 +16.3 72 +25 +25 комфорт 1018.8 1012.0
01 18.09 С 1 н/о н/о +21.0 +15.7 72 +26 +26 душно 1018.6 1011.8
02 18.09 н/о н/о +21.0 +15.4 70 1018.2 1011.4
03 18.09 С 1 н/о н/о +20.6 +15.2 71 +25 +25 комфорт 1017.9 1011.1
04 18.09 СВ 1 н/о н/о +20.7 +15.2 71 +25 +25 комфорт 1017.7 1010.9
05 18.09 СВ 1 н/о н/о +20.4 +14.8 70 +24 +24 комфорт 1017.7 1010.9
06 18.09 нст 1 н/о н/о +20.5 -8.3 14 +21 +21 комфорт 1017.9 1001.8 +20.4
07 18.09 20 км 1/1 600 м
[Cu Sc]
+20.3 +14.5 69 1018.4 1011.5
08 18.09 штиль 0 20 км 5/1 700 м
[Cu Sc Ac trans]
+22.4 +14.9 63 +26 +27 жарко 1018.8 1012.0
09 18.09 нст 1 20 км 3/3 600 м
[]
+24.0 +16.0 61 +27 +30 жарко 1030.1 1012.3
10 18.09 20 км 3/1 700 м
[Cu Sc Ac trans]
+23.9 +16.0 61 1019.5 1012.7
11 18.09 20 км 4/4 700 м
[Cu Sc Ac trans]
+24.5 +17.3 64 1019.7 1013.0
12 18.09 нст 2 20 км 5/5 600 м
[]
+24.8 +17.7 65 +29 +37 душно 1030.1 1012.8
13 18.09 С 2
{5}
н/о н/о +25.3 +17.6 62 +29 +29 душно 1019.4 1012.7
14 18.09 С 1 н/о н/о +24.1 +17.2 65 +28 +28 душно 1019.0 1012.3
15 18.09 нст 1 20 км 8/8 600 м
[]
+23.5 +17.5 69 +27 +33 душно 1018.7 1012.0
16 18.09 н/о н/о +22.9 +17.1 70 1018.6 1011.8
17 18.09 20 км 9/8 600 м
[Cu Sc Ac trans]
+22.9 +17.2 70 1018.5 1011.8
18 18.09 штиль 0 20 км 9/9 600 м
[Cu Sc]
+22.8 +17.2 71 +28 +28 душно 1030.1 1011.8 +25.8
19 18.09 н/о н/о +22.7 +17.4 72 1018.8 1012.0
20 18.09 н/о н/о +22.5 +17.6 74 1019.1 1012.3
21 18.09 С 1 н/о н/о +22.6 +17.8 74 +28 +28 душно 1019.5 1012.8
22 18.09 СВ 1 н/о н/о +22.3 +18.0 77 +27 +27 душно 1019.7 1013.0
23 18.09 штиль 0 н/о н/о +22.3 +17.6 75 +27 +27 душно 1019.8 1013.0
00 19.09 штиль 0 н/о н/о +22.4 +17.6 74 +27 +27 душно 1019.4 1012.6
01 19.09 штиль 0 н/о н/о +22.2 +17.0 72 +27 +27 душно 1019.2 1012.4
02 19.09 С 1 н/о н/о +21.7 +17.1 75 +26 +26 душно 1018.5 1011.7
03 19.09 С 1 н/о н/о +21.2 +16.5 75 +25 +25 комфорт 1018.3 1011.5
04 19.09 СВ 1 н/о н/о +21.1 +15.8 72 +24 +24 комфорт 1017.9 1011.1
05 19.09 С 1 н/о н/о +21.0 +15.7 72 +26 +26 душно 1017.9 1011.1
06 19.09 нст 1 н/о н/о +20.8 -60.3 73 +25 +25 комфорт 1018.0 1001.8 +20.7
07 19.09 С 1 20 км 5/1 600 м
[Cu Sc Ci]
+21.0 +15.8 72 +26 +26 душно 1018.4 1011.6
08 19.09 штиль 0 20 км 5/1 600 м
[Cu Sc Ci fib]
+22.6 +16.4 68 +27 +28 душно 1018.6 1011.9
09 19.09 ЮЗ 1 20 км 3/3 600 м
[Cu hum Ci fib]
+24.3 +17.6 66 +28 +31 душно 1030.1 1012.2
10 19.09 -5
{5}
20 км 4/3 700 м
[Cu hum Ci fib]
+25.5 +18.5 65 1019.3 1012.6
11 19.09 С 3
{5}
20 км 6/5 540 м
[Cu Sc Ci fib]
+26.9 +18.8 61 +32 +36 очень
душно
1019.2 1012.6
12 19.09 нст 2
{5}
20 км 8/6 540 м
[Cu Sc Ac lent Ci sp]
+25.4 +18.6 66 +30 +34 душно 1030.1 1012.4
13 19.09 -7
{7}
н/о н/о +26.5 +18.9 63 1018.4 1011.7
14 19.09 -6
{7}
н/о н/о +25.5 +18.7 66 1018.0 1011.3
15 19.09 нст 2
{5}
20 км 8/6 500 м
[Cu Sc Ac trans Ci fib]
+25.1 +18.5 67 +30 +33 душно 1017.6 1010.9
16 19.09
{5}
н/о н/о +24.7 +18.2 67 1017.3 1010.6
17 19.09
{6}
н/о н/о +24.6 +18.6 69 1017.4 1010.7
18 19.09 нст 1
{5}
20 км 9/9 540 м
[Cu Sc]
+23.4 +19.3 78 +30 +30 очень
душно
1030.1 1010.6 +27.7
19 19.09 С 1 н/о н/о +23.4 +19.2 77 +30 +30 очень
душно
1017.5 1010.8
20 19.09 штиль 0 н/о н/о +23.2 +19.4 79 +30 +30 очень
душно
1017.9 1011.2
21 19.09 С 1 н/о н/о +22.9 +19.1 79 +29 +29 очень
душно
1018.6 1011.8
22 19.09 СВ 1 н/о н/о +22.8 +18.2 75 +28 +28 душно 1018.7 1011.9
23 19.09 СВ 1 н/о н/о +22.5 +17.2 72 +27 +27 душно 1018.5 1011.7
00 20.09 С 1 н/о н/о +22.5 +17.3 72 +27 +27 душно 1018.3 1011.6

 

Местоположение метеостанции Фуншал (Португалия): широта 32.63 долгота -16.90 высота над уровнем моря 56 м.

В архиве по умолчанию представлена погода в Фуншале за последнюю неделю. Архивные данные за месяц целиком и за предыдущие месяцы, начиная с января 2011 года, Вы можете получить, выбрав интересующий диапазон дат из раскрывающегося списка и нажав кнопку "Ввод!".


*Определитесь, кто Вы:
робот инопланетянин человек

Внимание! Время в таблицах - всемирное. Для получения местного времени необходимо прибавить поправку, которая равна 0 ч.

Смотрите также архив погоды в соседних городах и на ближайших метеорологических станциях:

Погода в Санта-Катарине (Португалия) (14 км)
Погода на Порту-Санту (Португалия) (71 км)
Погода на Пальме (Канарские Острова) (453 км)
Погода в Тасакорте (Канарские Острова) (459 км)
Погода на Тенерифе (Канарские Острова) (466 км)
Погода в Санта-Круз-де-Тенерифе (Канарские Острова) (469 км)
Погода в Пуэрто-де-ла-Крус (Канарские Острова) (469 км)
Погода в Тенерифе-Гуимаре (Канарские Острова) (482 км)
Погода в Обсерватории Izana (Канарские Острова) (483 км)
Погода в Сан-Себастьян-де-ла-Гомера (Канарские Острова) (505 км)

Пояснения к столбцам:

Ветер - указаны скорость ветра в м/с - средняя за 10 мин, порывы в срок и между сроками (в фигурных скобках) и направление, откуда дует ветер: С - северный, СВ - северо-восточный, В - восточный, ЮВ - юго-восточный, Ю - южный, ЮЗ - юго-западный, З - западный, СЗ - северо-западный.
Видимость - горизонтальная дальность видимости в метрах или километрах. При видимости от 1 до 10 км при отсутствии осадков обычно наблюдается дымка, при ухудшении видимости до 1 км и менее - туман. В сухую погоду видимость может ухудшаться дымом, пылью или мглою.
Явления - указаны атмосферные явления, наблюдавшиеся в срок или в последний час перед сроком; фигурными скобками обозначены явления, наблюдавшиеся между сроками (за 1-3 часа до срока); квадратными скобками обозначены град или гололедные отложения с указанием их диаметра в мм.
Облачность - указаны через наклонную черту общая и нижняя облачность в баллах и высота нижней границы облаков в метрах; квадратными скобками обозначены формы облаков: Ci - перистые, Cs - перисто-слоистые, Cc - перисто-кучевые, Ac - высококучевые, As - высокослоистые, Sc - слоисто-кучевые, Ns - слоисто-дождевые, Cu - кучевые, Cb - кучево-дождевые. Подробнее классификацию облаков см. в Атласе облаков (PDF).
T - Температура воздуха - температура, измеренная на высоте 2 м над землей.
Td - Температура точки росы - температура, при понижении до которой содержащийся в воздухе водяной пар достигнет насыщения.
f - Относительная влажность воздуха - влажноcть воздуха, измеренная на высоте 2 м над землей.
Te - Эффективная температура - температура, которую ощущает одетый по сезону человек в тени. Характеристика душности погоды. При расчете учитывается влияние влажности воздуха и скорости ветра на теплоощущения человека.
Tes - Эффективная температура на солнце - температура, которую ощущает человек, с поправкой на солнечный нагрев. Характеристика знойности погоды. Зависит от высоты солнца над горизонтом, облачности и скорости ветра. Ночью, в пасмурную погоду, а также при ветре 12 м/с и более поправка равна нулю.
P - Атмосферное давление - приведенное к уровню моря атмосферное давление.
Po - Атмосферное давление - измеренное на уровне метеостанции атмосферное давление.
Tmin - Минимальная температура - минимум температуры воздуха на высоте 2 м над землей.
Tmax - Максимальная температура - максимум температуры воздуха на высоте 2 м над землей.
R - Количество осадков - Количество выпавших осадков за период времени, мм. При наведении курсора мыши на число - период времени, за который выпало указанное количество осадков.
R24 - Количество осадков - Количество выпавших осадков за 24 часа, мм.
S - Снежный покров - Высота снежного покрова, см. При наведении курсора мыши на число - состояние снежного покрова и степень покрытия местности в баллах.